Powrót do katalogu

STARLINK-37860

AktywnyŁącznośćSSO
NORAD 69554·PAYLOAD·🇺🇸 United States

Wystrzelony Jun 15, 2026 z Vandenberg Space Force Base

Loading…

Następne Przeloty (najbliższe 24 godziny)

TLE

ŚwieżeSource: CelesTrak SupGP

Epoka: Sep 14, 2026, 23:31 UTC

1 69554C 26135J   26257.98034722  .00064251  00000+0  19947-2 0  2579
2 69554  97.2834 285.7308 0001623  88.7512 254.3960 15.33402801    17

Śledź STARLINK-37860 w czasie rzeczywistym z AllMySat

Download on the App Store